Погода в Томмоте

Погода в Томмоте : погода сейчас, прогноз погоды и архив. Всё, что Вы хотите узнать о погоде в Томмоте!

Поиск расширенной информации на нашем сайте:

Другие новости

Новости СМИ2

Главная страница сайта

Новости сайта

03.07.2017

Напоминаем, что на нашем специализированном сайте Метеоцентр.Азия вы можете получить высокодетализированные автоматические прогнозы погоды по пунктам России, СНГ и мира в авиационном формате (включающие направление и скорость ветра, видимость, явления погоды, количество и форму облачности, нижнюю и верхнюю границу облачности).

Рекомендуем: Смотрите подробности газонокосилки сабо ремонт тут.

Погода в Томмоте - сегодня

Время (UTC), дата Ветер
(°,м/с) 
Видим.   Явления Облачность Т
(°С)
Тd
(°С)
f(%) Тe
(°С)
Pmin
(гПа)
dP
(гПа)
Po
(мм)
O2
(г/м3)
Тmin Tmax R s Состояние
почвы
03 18.02.18 тихо ()   20000 м  слаб. снег  10/0 верхняя 
[Cs]
-28.4 -31.5 75 -28  1026.4  -0.5  740  335           
06 18.02.18 330 (СЗ) 20000 м  слаб. снег  10/0 верхняя 
[Cs]
-20.6 -25.5 65 -21  1023.7  -1.5  739  324           
09 18.02.18 350 (С) 20000 м  {снег}  10/4 2000 м средняя, верхняя 
[Ac As|Cs]
-19.9 -25.7 60 -20  1023.8  0.3  739  323           
15 18.02.18 340 (С) 20000 м  слаб. снег  10/0 верхняя 
[Cs]
-30.5 -33 79 -31  1026.3  0.3  740  337           
18 18.02.18 тихо ()   10 км  слаб. снег  10/0 верхняя 
[Cs]
-36.3 -38.4 81 -36  1027.9  0.6  740  346           
21 18.02.18 тихо ()   10 км  слаб. снег  10/0 верхняя 
[Cs]
-37.4 -40.1 76 -37  1028.1  740  348           
03 19.02.18 тихо ()   20000 м  слаб. снег  10/0 верхняя 
[Cs]
-31.4 -35 71 -31  1026.2  -1  740  339           
06 19.02.18 270 (З) 10 км  слаб. снег  10/4 2000 м средняя, верхняя 
[Ac As|Cs]
-21.3 -26.1 65 -22  1022.6  -2  738  324           
09 19.02.18 тихо ()   20000 м  слаб. снег  10/6 2000 м средняя, верхняя 
[Ac As|Cs]
-22.2 -26.3 69 -22  1021.9  -0.7  738  325           
15 19.02.18 тихо ()   20000 м  слаб. снег  10/0 верхняя 
[Cs]
-32.9 -35.1 81 -33  1022.7  -0.9  737  339           
18 19.02.18 тихо ()   10 км  слаб. снег  10/0 верхняя 
[Cs]
-31.5 -33.9 79 -32  1021.7  -0.9  736  337           
21 19.02.18 тихо ()   20000 м  слаб. снег  8/0 верхняя 
[Cs]
-36 -39 74 -36  1021.9  -0.4  736  344           
03 20.02.18 тихо ()   10 км  слаб. снег  10/0 верхняя 
[Cs]
-27.6 -31.4 70 -28  1019.6  -0.8  735  331           
06 20.02.18 340 (С) 4000 м  слаб. снег  10/4 2000 м средняя, верхняя 
[As trans|Cs]
-19.8 -23.9 70 -20  1017.1  -1.2  734  321           
09 20.02.18 360 (С) 4000 м  слаб. снег  10/4 2000 м средняя, верхняя 
[As trans|Cs]
-21.5 -24 80 -22  1017.7  0.4  735  323           
15 20.02.18 тихо ()   20000 м  слаб. снег  10/0 верхняя 
[Cs]
-32.2 -34.6 79 -32  1020.2  735  338           
18 20.02.18 тихо ()   20000 м  {снег}  10/0 верхняя 
[Ci fib]
-39.5 -42.3 75 -40  1021.7  0.1  735  348           
21 20.02.18 тихо ()   20000 м    6/0 верхняя 
[Ci fib]
-40.2 -42.8 76 -40  1021.4  -0.3  735  349           
03 21.02.18 210 (ЮЗ) 20000 м  в посл. час снег  4/0 верхняя 
[Ci fib]
-30.1 -34.7 64 -31  1019.8  -0.3  735  335           
06 21.02.18 210 (ЮЗ) 20000 м  {снег}  8/0 верхняя 
[Cs]
-22.5 -28.2 60 -23  1017.5  -1  734  324           
09 21.02.18 180 (Ю) 20000 м    3/0 верхняя 
[Ci fib]
-26.7 -30.6 70 -27  1019  0.7  735  330           
12 21.02.18 тихо ()   20000 м    ясно 
-34.7 -37.7 74 -35  1021.5  736  342    -21.6  0.0     
15 21.02.18 тихо ()   20000 м    ясно 
-39.2 -41.8 77 -39  1023  0.8  736  348           
18 21.02.18 тихо ()   20000 м    ясно 
-40.9 -43.8 74 -41  1024  0.7  737  351           
21 21.02.18 тихо ()   20000 м    ясно 
-43.2 -45.6 77 -43  1024.8  0.4  737  355           
Время (UTC), дата Ветер
(°,м/с) 
Видим.   Явления Облачность Т
(°С)
Тd
(°С)
f(%) Тe
(°С)
Pmin
(гПа)
dP
(гПа)
Po
(мм)
O2
(г/м3)
Тmin Tmax R s Состояние
почвы

Для получения пояснительной информации подведите курсор к названию столбца.

ПОГОДА в Томмоте - архив

Всё, что Вы хотите узнать о погоде в Томмоте - удобно и подробно!

Выберите нужную дату (начиная с 1 января 2015* года) и нажмите кнопку "Найти".
Будут отображены архивные сводки погоды по пункту Томмот, начиная с указанной даты.


Отображать данные в формате CSV (для использования в таблицах Excel)


Внимание! Наш архив погоды предназначен исключительно для личного некоммерческого использования в познавательных целях. Если Вам необходимы официальные справки о состоянии погоды (для производственных, юридических, коммерческих и т.п. целей), обращайтесь в органы Росгидромета.

*Примечание: данная дата относится к архиву по метеостанциям СССР (Россия, СНГ, Балтия).
Архив по метеостанциям Зарубежной Европы и Азии (кроме Китая) хранится 10 дней, по другим регионам земного шара (Китай, Африка, Америка, Австралия, Океания) - 1 день.

Томмот - район местоположения метеостанции


Название, широта, долгота, высота метеостанции:
Томмот 58.9°ш. 126.3°д. 283 м над ур. моря [Российская Федерация]

Дополнительная информация

В oтличие oт бoльшинства пoгoдных сайтoв мы публикуем пoдрoбную метеoинфoрмацию в детальнoм прoфессиoнальнoм фoрмате.

Характеристики температуры и влажнoсти вoздуха измеряются на высoте 2 м в тени вдали oт зданий и деревьев.
Скoрoсть ветра измеряется на высoте 10 м (на урoвне рoста челoвека скoрoсть ветра ниже в 1.5-2 раза). Если метеoстанция нахoдится в гoрoде или в лесу, тo скoрoсть ветра занижена на 2-4 м/с пo сравнению с oткрытым местoм. Скoрoсть ветра над акватoриями крупных рек и oзёр, а также на вершинах хoлмoв на 2-5 м/с выше, чем в oбычных услoвиях.
Атмoсфернoе давление в разных тoчках местнoсти мoжет значительнo oтличаться oт давления на метеoстанции, в зависимoсти oт услoвий рельефа (при пoдъёме на 10 м давление пoнижается примернo на 1 мм рт.ст.).